sat.trackr.live / text

‹ back to catalog

STARLINK-34969

NORAD 65241 · 2025-179G

PAYLOAD ACTIVE UNKNOWN

§ Identity

Operator
Country
US
Launch date
2025-08-18
Launch site
AFWTR
Launch vehicle
Mass (kg)
RCS (m²)

Purposes: comms

External: N2YO · Heavens-Above · Gunter

§ Orbital elements

Epoch: 2026-09-20T20:45:36.050976Z

Period
93.90 min
Inclination
97.2816°
Eccentricity
0.0001510
Mean motion
15.33467185 rev/d
Perigee alt
464.4 km
Apogee alt
466.5 km
Semi-major
6,843.6 km
B*
4.9333e-4
RAAN
303.1060°
Arg perigee
99.7871°
Mean anomaly
260.3543°
Rev number
6,136

§ Raw data

STARLINK-349691 65241U 25179G   26263.86500059  .00015896  00000+0  49333-3 0  99972 65241  97.2816 303.1060 0001510  99.7871 260.3543 15.33467185 61366

JSON: /api/v1/satellites/65241 · /tle

For live sub-satellite position, see the globe view (requires WebGL).

§ Visibility from observer

Set your observer location to see the next 7 days of passes ≥ 10°. The values pass through the URL so the page stays shareable.

No JS? Fill the form by hand. The geolocation button needs JavaScript.